{"data":{"norad_id":56482,"intl_designator":"2023-064AL","name":"STARLINK-6220","alt_names":[],"object_type":"PAYLOAD","status":"ACTIVE","operator":null,"country":"US","launch_date":"2023-05-10","launch_site_code":"AFWTR","launch_vehicle":null,"mission":null,"orbit_class":"UNKNOWN","rcs_meters":null,"size_class":null,"mass_kg":null,"dimensions":null,"purposes":["comms"],"wikipedia_slug":null,"has_3d_model":false,"image_url":null,"decayed_at":null,"tle_current":{"epoch":"2026-09-20T22:00:03.000096Z","epoch_age_seconds":76016,"freshness":"FRESH","line1":"1 56482U 23064AL  26263.91670139  .00000200  00000+0  21327-4 0  9995","line2":"2 56482  70.0003 352.0919 0004328 257.5949 175.4491 15.04470343  5764","mean_motion":15.04470343,"eccentricity":0.0004328,"inclination_deg":70.0003,"raan_deg":352.0919,"arg_perigee_deg":257.5949,"mean_anomaly_deg":175.4491,"bstar":2.1327e-5,"rev_number":576,"period_min":95.7147481637,"perigee_km":550.13214588431,"apogee_km":556.13185232994,"semimajor_km":6931.2689991071,"source":"CELESTRAK","updated_at":"2026-09-21T09:00:33.448058Z"}}}